This is the latest recevied weather packets stored in our database for station/object KN4CI-1. If no packets are shown the sender has not sent any weather packets the latest 10 day(s).
| Time | Temp. | Humidity | Pressure | Rain* | Wind** | Luminosity | Snow |
|---|---|---|---|---|---|---|---|
| 1777644885 | 15° C | 19% | 1016.6 hPa | 0 mm | 1.79 m/s, 351° | - | - |
| 1777644278 | 14.44° C | 22% | 1016.6 hPa | 0 mm | 1.79 m/s, 322° | - | - |
| 1777643676 | 14.44° C | 22% | 1016.6 hPa | 0 mm | 1.34 m/s, 321° | - | - |
| 1777642758 | 13.33° C | 25% | 1016.6 hPa | 0 mm | 0 m/s | - | - |
| 1777641542 | 13.33° C | 26% | 1015.6 hPa | 0 mm | 1.34 m/s, 321° | - | - |
| 1777641236 | 12.78° C | 27% | 1015.6 hPa | 0 mm | 1.34 m/s, 334° | - | - |
| 1777640936 | 12.78° C | 27% | 1015.6 hPa | 0 mm | 1.79 m/s, 334° | - | - |
| 1777640631 | 12.78° C | 27% | 1015.6 hPa | 0 mm | 1.34 m/s, 306° | - | - |
| 1777640331 | 12.22° C | 29% | 1015.6 hPa | 0 mm | 1.79 m/s, 356° | - | - |
| 1777640031 | 12.22° C | 35% | 1015.6 hPa | 0 mm | 1.79 m/s, 343° | - | - |
| 1777639719 | 12.22° C | 36% | 1015.6 hPa | 0 mm | 1.79 m/s, 345° | - | - |
| 1777639419 | 11.67° C | 36% | 1015.6 hPa | 0 mm | 1.79 m/s, 345° | - | - |
| 1777639120 | 11.67° C | 38% | 1015.6 hPa | 0 mm | 1.79 m/s, 345° | - | - |
| 1777638816 | 11.67° C | 41% | 1015.6 hPa | 0 mm | 1.34 m/s, 345° | - | - |
| 1777638516 | 11.67° C | 44% | 1015.6 hPa | 0 mm | 0 m/s | - | - |
| 1777638217 | 11.11° C | 45% | 1015.6 hPa | 0 mm | 0 m/s | - | - |
| 1777637912 | 11.11° C | 46% | 1015.6 hPa | 0 mm | 0 m/s | - | - |
| 1777637613 | 11.11° C | 46% | 1015.6 hPa | 0 mm | 0 m/s | - | - |
| 1777637313 | 10.56° C | 46% | 1015.6 hPa | 0 mm | 0 m/s | - | - |
| 1777637004 | 10.56° C | 47% | 1015.6 hPa | 0 mm | 1.34 m/s, 345° | - | - |
| 1777636705 | 10.56° C | 47% | 1015.6 hPa | 0 mm | 0 m/s | - | - |
| 1777636404 | 10.56° C | 47% | 1015.6 hPa | 0 mm | 1.34 m/s, 345° | - | - |
| 1777636100 | 10° C | 47% | 1015.6 hPa | 0 mm | 1.79 m/s, 345° | - | - |
| 1777635495 | 9.44° C | 44% | 1015.6 hPa | 0 mm | 0 m/s | - | - |
| 1777635193 | 9.44° C | 44% | 1015.6 hPa | 0 mm | 0 m/s | - | - |
* Rain latest hour (hover to see other rain measurements)
** Current wind speed in m/s (hover to see current wind gust speed)